NRD1123 LEMD-LFPG

Flight info

Callsign NRD1123
Flight time 1h 32m
Altitude 36000
Route RBO4N RBO N867 DGO DCT ABRIX DCT CNA DCT POI/N0429F300 DCT PEPAX UT182 KEPER KEPER9E
Aircraft A321/M-SDE2E3FGHIJ1RWXY/C

Departure

Time 2026-04-30 07:56
Airport Adolfo Suárez Madrid–Barajas Airport (LEMD)

Arrival

Time 2026-04-30 09:28
Airport Charles de Gaulle International Airport (LFPG)
Time Latitude Longitude Altitude Speed Heading
2026-04-30 07:41 40.47352 -3.57044 1953 ft 0 kts 229°
2026-04-30 07:45 40.47357 -3.57037 1983 ft 3 kts 232°
2026-04-30 07:45 40.47367 -3.57015 1982 ft 3 kts 255°
2026-04-30 07:45 40.47369 -3.56990 1980 ft 3 kts 286°
2026-04-30 07:46 40.47361 -3.56971 1980 ft 2 kts 321°
2026-04-30 07:46 40.47356 -3.56965 1980 ft 0 kts 322°
2026-04-30 07:49 40.47363 -3.56973 1980 ft 6 kts 322°
2026-04-30 07:49 40.47414 -3.57027 1983 ft 11 kts 313°
2026-04-30 07:50 40.47459 -3.57114 1982 ft 12 kts 303°
2026-04-30 07:50 40.47519 -3.57201 1980 ft 13 kts 328°
2026-04-30 07:50 40.47596 -3.57152 1982 ft 13 kts 48°
2026-04-30 07:50 40.47662 -3.57067 1980 ft 13 kts 20°
2026-04-30 07:51 40.47748 -3.57123 1980 ft 17 kts 322°
2026-04-30 07:51 40.47849 -3.57224 1982 ft 19 kts 323°
2026-04-30 07:51 40.47956 -3.57333 1980 ft 21 kts 322°
2026-04-30 07:51 40.48093 -3.57472 1981 ft 26 kts 323°
2026-04-30 07:52 40.48238 -3.57619 1980 ft 27 kts 322°
2026-04-30 07:52 40.48387 -3.57770 1980 ft 27 kts 323°
2026-04-30 07:52 40.48553 -3.57899 1983 ft 28 kts 332°
2026-04-30 07:52 40.48742 -3.57936 1980 ft 28 kts
2026-04-30 07:53 40.48940 -3.57937 1980 ft 29 kts 359°
2026-04-30 07:53 40.49139 -3.57934 1980 ft 27 kts 11°
2026-04-30 07:53 40.49173 -3.57788 1982 ft 16 kts 88°
2026-04-30 07:53 40.49173 -3.57654 1983 ft 11 kts 88°
2026-04-30 07:54 40.49195 -3.57572 1981 ft 10 kts 64°
2026-04-30 07:54 40.49229 -3.57485 1983 ft 12 kts 55°
2026-04-30 07:54 40.49304 -3.57464 1984 ft 10 kts 359°
2026-04-30 07:54 40.49309 -3.57464 1984 ft 0 kts 359°
2026-04-30 07:55 40.49323 -3.57464 1983 ft 12 kts 360°
2026-04-30 07:55 40.49686 -3.57466 1981 ft 90 kts 360°
2026-04-30 07:55 40.50534 -3.57470 1981 ft 152 kts 360°
2026-04-30 07:55 40.51747 -3.57475 2112 ft 187 kts 360°
2026-04-30 07:56 40.53056 -3.57486 2791 ft 189 kts 359°
2026-04-30 07:56 40.54375 -3.57497 3547 ft 190 kts 359°
2026-04-30 07:56 40.55726 -3.57378 4038 ft 204 kts 11°
2026-04-30 07:56 40.57143 -3.56893 4267 ft 221 kts 16°
2026-04-30 07:57 40.58671 -3.56278 4478 ft 238 kts 17°
2026-04-30 07:57 40.60291 -3.55621 5073 ft 244 kts 16°
2026-04-30 07:57 40.61922 -3.54971 5910 ft 246 kts 15°
2026-04-30 07:57 40.63584 -3.54349 6672 ft 250 kts
2026-04-30 07:58 40.65319 -3.54118 7389 ft 252 kts
2026-04-30 07:58 40.67077 -3.53957 8140 ft 255 kts
2026-04-30 07:58 40.68840 -3.53641 8873 ft 259 kts 15°
2026-04-30 07:58 40.70482 -3.52623 9588 ft 266 kts 34°
2026-04-30 07:59 40.71878 -3.50831 9880 ft 290 kts 54°
2026-04-30 07:59 40.73026 -3.48596 10192 ft 309 kts 56°
2026-04-30 07:59 40.74277 -3.46151 10375 ft 333 kts 56°
2026-04-30 08:00 40.77009 -3.40857 11210 ft 359 kts 55°
2026-04-30 08:00 40.78430 -3.38114 11841 ft 365 kts 55°
2026-04-30 08:00 40.79868 -3.35341 12518 ft 369 kts 54°
2026-04-30 08:00 40.81326 -3.32525 13190 ft 373 kts 54°
2026-04-30 08:01 40.82798 -3.29680 13858 ft 377 kts 54°
2026-04-30 08:01 40.84284 -3.26808 14459 ft 381 kts 54°
2026-04-30 08:01 40.85813 -3.23942 15077 ft 383 kts 48°
2026-04-30 08:01 40.87814 -3.21650 15661 ft 381 kts 27°
2026-04-30 08:02 40.92865 -3.20383 16859 ft 373 kts 346°
2026-04-30 08:02 40.95373 -3.21212 17477 ft 374 kts 344°
2026-04-30 08:03 41.00646 -3.21268 18617 ft 388 kts
2026-04-30 08:03 41.06024 -3.20123 19693 ft 394 kts
2026-04-30 08:03 41.08691 -3.19508 20226 ft 398 kts
2026-04-30 08:04 41.11410 -3.18870 20767 ft 401 kts
2026-04-30 08:04 41.14183 -3.18223 21334 ft 404 kts
2026-04-30 08:04 41.16964 -3.17583 21865 ft 407 kts
2026-04-30 08:04 41.19772 -3.16945 22422 ft 410 kts
2026-04-30 08:05 41.21635 -3.16524 22750 ft 412 kts
2026-04-30 08:05 41.25430 -3.15671 23425 ft 416 kts
2026-04-30 08:05 41.27322 -3.15245 23730 ft 417 kts
2026-04-30 08:05 41.30196 -3.14599 24123 ft 420 kts
2026-04-30 08:06 41.33092 -3.13946 24538 ft 423 kts
2026-04-30 08:06 41.36000 -3.13289 24945 ft 426 kts
2026-04-30 08:06 41.38934 -3.12625 25337 ft 428 kts
2026-04-30 08:06 41.41880 -3.11954 25726 ft 431 kts
2026-04-30 08:07 41.44846 -3.11279 26106 ft 434 kts
2026-04-30 08:07 41.47823 -3.10601 26477 ft 436 kts
2026-04-30 08:07 41.50789 -3.09925 26850 ft 439 kts
2026-04-30 08:07 41.53827 -3.09238 27252 ft 441 kts
2026-04-30 08:08 41.56839 -3.08559 27633 ft 443 kts
2026-04-30 08:08 41.59853 -3.07876 27997 ft 445 kts
2026-04-30 08:08 41.62846 -3.07196 28345 ft 448 kts
2026-04-30 08:08 41.65917 -3.06496 28693 ft 450 kts
2026-04-30 08:09 41.69063 -3.05781 29037 ft 453 kts
2026-04-30 08:09 41.72175 -3.05073 29360 ft 456 kts
2026-04-30 08:09 41.75288 -3.04365 29696 ft 458 kts
2026-04-30 08:09 41.78436 -3.03645 30038 ft 461 kts
2026-04-30 08:10 41.81606 -3.02917 30331 ft 463 kts
2026-04-30 08:10 41.84793 -3.02180 30617 ft 466 kts
2026-04-30 08:10 41.87997 -3.01439 30887 ft 469 kts
2026-04-30 08:10 41.91214 -3.00693 31195 ft 470 kts
2026-04-30 08:11 41.94432 -2.99946 31571 ft 469 kts
2026-04-30 08:11 41.97655 -2.99197 31975 ft 468 kts
2026-04-30 08:11 42.00865 -2.98453 32366 ft 468 kts
2026-04-30 08:11 42.04077 -2.97711 32738 ft 468 kts
2026-04-30 08:12 42.07287 -2.96971 33084 ft 469 kts
2026-04-30 08:12 42.10506 -2.96223 33447 ft 469 kts
2026-04-30 08:12 42.13715 -2.95471 33800 ft 469 kts
2026-04-30 08:12 42.16935 -2.94717 34144 ft 469 kts
2026-04-30 08:13 42.20140 -2.93967 34461 ft 468 kts
2026-04-30 08:13 42.23355 -2.93214 34790 ft 467 kts
2026-04-30 08:13 42.26551 -2.92466 35118 ft 466 kts
2026-04-30 08:13 42.29749 -2.91720 35415 ft 466 kts
2026-04-30 08:14 42.32947 -2.90977 35718 ft 465 kts
2026-04-30 08:14 42.36133 -2.90235 35996 ft 466 kts
2026-04-30 08:14 42.39234 -2.89509 36075 ft 463 kts
2026-04-30 08:15 42.45499 -2.87575 36076 ft 467 kts 16°
2026-04-30 08:15 42.51328 -2.83553 36077 ft 472 kts 25°
2026-04-30 08:16 42.57065 -2.79221 36079 ft 472 kts 25°
2026-04-30 08:16 42.62798 -2.74891 36079 ft 471 kts 25°
2026-04-30 08:17 42.68523 -2.70559 36086 ft 471 kts 25°
2026-04-30 08:17 42.74228 -2.66212 36092 ft 472 kts 25°
2026-04-30 08:18 42.79964 -2.61843 36084 ft 472 kts 25°
2026-04-30 08:18 42.85669 -2.57497 36087 ft 473 kts 25°
2026-04-30 08:19 42.91421 -2.53098 36083 ft 474 kts 25°
2026-04-30 08:19 42.97206 -2.48671 36085 ft 474 kts 25°
2026-04-30 08:20 43.02951 -2.44262 36101 ft 473 kts 26°
2026-04-30 08:20 43.08690 -2.39842 36091 ft 473 kts 26°
2026-04-30 08:21 43.14413 -2.35424 36082 ft 472 kts 26°
2026-04-30 08:21 43.20140 -2.30992 36079 ft 473 kts 26°
2026-04-30 08:22 43.25862 -2.26561 36082 ft 472 kts 27°
2026-04-30 08:22 43.31578 -2.22131 36078 ft 471 kts 27°
2026-04-30 08:23 43.37281 -2.17696 36072 ft 471 kts 27°
2026-04-30 08:23 43.42981 -2.13248 36086 ft 471 kts 28°
2026-04-30 08:24 43.48614 -2.08836 36077 ft 470 kts 28°
2026-04-30 08:24 43.54213 -2.04446 36073 ft 470 kts 28°
2026-04-30 08:25 43.59860 -2.00014 36073 ft 470 kts 28°
2026-04-30 08:25 43.65517 -1.95565 36085 ft 470 kts 28°
2026-04-30 08:26 43.71114 -1.91154 36078 ft 469 kts 29°
2026-04-30 08:26 43.76595 -1.86826 36063 ft 470 kts 29°
2026-04-30 08:27 43.82214 -1.82378 36074 ft 471 kts 30°
2026-04-30 08:27 43.87620 -1.78090 36074 ft 471 kts 30°
2026-04-30 08:28 43.92692 -1.74052 36076 ft 470 kts 30°
2026-04-30 08:28 43.98345 -1.69536 36074 ft 470 kts 30°
2026-04-30 08:29 44.03865 -1.65122 36081 ft 470 kts 30°
2026-04-30 08:29 44.09474 -1.60639 36084 ft 469 kts 30°
2026-04-30 08:30 44.14936 -1.56262 36074 ft 469 kts 30°
2026-04-30 08:30 44.20416 -1.51845 36066 ft 468 kts 30°
2026-04-30 08:31 44.26056 -1.47300 36072 ft 468 kts 31°
2026-04-30 08:31 44.31508 -1.42898 36076 ft 468 kts 31°
2026-04-30 08:32 44.37147 -1.38336 36076 ft 468 kts 31°
2026-04-30 08:32 44.42651 -1.33869 36079 ft 468 kts 31°
2026-04-30 08:33 44.48265 -1.29304 36082 ft 467 kts 31°
2026-04-30 08:33 44.53855 -1.24746 36080 ft 467 kts 31°
2026-04-30 08:34 44.59497 -1.20143 36080 ft 467 kts 31°
2026-04-30 08:34 44.65121 -1.15540 36083 ft 466 kts 31°
2026-04-30 08:35 44.70688 -1.10973 36071 ft 466 kts 31°
2026-04-30 08:35 44.76249 -1.06401 36077 ft 466 kts 31°
2026-04-30 08:36 44.81838 -1.01781 36081 ft 466 kts 31°
2026-04-30 08:36 44.87433 -0.97151 36084 ft 466 kts 31°
2026-04-30 08:37 44.93010 -0.92546 36098 ft 466 kts 31°
2026-04-30 08:37 44.98600 -0.87911 36096 ft 466 kts 31°
2026-04-30 08:38 45.04187 -0.83272 36097 ft 465 kts 31°
2026-04-30 08:38 45.09478 -0.78862 36093 ft 464 kts 31°
2026-04-30 08:39 45.15038 -0.74221 36086 ft 463 kts 32°
2026-04-30 08:39 45.20574 -0.69587 36094 ft 461 kts 32°
2026-04-30 08:40 45.26082 -0.64961 36099 ft 459 kts 32°
2026-04-30 08:40 45.31570 -0.60337 36091 ft 458 kts 32°
2026-04-30 08:41 45.37081 -0.55693 36070 ft 467 kts 32°
2026-04-30 08:41 45.42713 -0.50937 36061 ft 473 kts 32°
2026-04-30 08:42 45.48380 -0.46137 36060 ft 473 kts 32°
2026-04-30 08:42 45.54036 -0.41328 36057 ft 474 kts 32°
2026-04-30 08:43 45.59700 -0.36514 36052 ft 473 kts 33°
2026-04-30 08:43 45.65351 -0.31702 36062 ft 473 kts 31°
2026-04-30 08:44 45.71319 -0.27671 36076 ft 475 kts 26°
2026-04-30 08:44 45.76365 -0.24392 36090 ft 475 kts 26°
2026-04-30 08:45 45.82383 -0.20471 36249 ft 474 kts 26°
2026-04-30 08:45 45.85383 -0.18510 36536 ft 473 kts 26°
2026-04-30 08:45 45.88378 -0.16546 36773 ft 473 kts 26°
2026-04-30 08:45 45.91370 -0.14585 36991 ft 473 kts 26°
2026-04-30 08:46 45.94369 -0.12614 37056 ft 474 kts 26°
2026-04-30 08:46 46.00364 -0.08661 37058 ft 474 kts 26°
2026-04-30 08:47 46.06361 -0.04708 37058 ft 474 kts 26°
2026-04-30 08:47 46.12351 -0.00758 37050 ft 474 kts 26°
2026-04-30 08:48 46.18346 0.03218 37055 ft 474 kts 26°
2026-04-30 08:48 46.24347 0.07214 37060 ft 475 kts 26°
2026-04-30 08:49 46.30359 0.11214 37070 ft 477 kts 26°
2026-04-30 08:49 46.36400 0.15243 37079 ft 477 kts 26°
2026-04-30 08:50 46.42382 0.19249 37103 ft 478 kts 26°
2026-04-30 08:50 46.48412 0.23290 37112 ft 478 kts 26°
2026-04-30 08:51 46.54447 0.27347 37109 ft 477 kts 26°
2026-04-30 08:51 46.60678 0.30615 37109 ft 479 kts 13°
2026-04-30 08:52 46.67200 0.32597 37106 ft 478 kts 13°
2026-04-30 08:52 46.73708 0.34595 37108 ft 478 kts 13°
2026-04-30 08:53 46.80228 0.36598 37099 ft 478 kts 13°
2026-04-30 08:53 46.86740 0.38605 37094 ft 478 kts 13°
2026-04-30 08:54 46.93243 0.40617 37087 ft 477 kts 13°
2026-04-30 08:54 46.96451 0.41612 37054 ft 465 kts 13°
2026-04-30 08:54 46.99584 0.42587 37064 ft 459 kts 13°
2026-04-30 08:54 47.02735 0.43565 36846 ft 468 kts 13°
2026-04-30 08:55 47.05947 0.44448 36483 ft 470 kts
2026-04-30 08:55 47.09218 0.44693 35866 ft 470 kts 359°
2026-04-30 08:55 47.12481 0.44208 35146 ft 472 kts 351°
2026-04-30 08:55 47.15690 0.43379 34787 ft 466 kts 352°
2026-04-30 08:56 47.18893 0.42582 34066 ft 467 kts 353°
2026-04-30 08:56 47.22105 0.41807 33338 ft 467 kts 353°
2026-04-30 08:56 47.25299 0.41048 32875 ft 463 kts 353°
2026-04-30 08:56 47.28471 0.40292 32334 ft 460 kts 353°
2026-04-30 08:57 47.31614 0.39536 31819 ft 456 kts 353°
2026-04-30 08:57 47.34729 0.38779 31299 ft 453 kts 352°
2026-04-30 08:57 47.37829 0.38020 30768 ft 449 kts 352°
2026-04-30 08:57 47.40900 0.37263 30271 ft 446 kts 352°
2026-04-30 08:58 47.43953 0.36505 29716 ft 442 kts 352°
2026-04-30 08:58 47.46974 0.35758 29243 ft 437 kts 352°
2026-04-30 08:58 47.49918 0.35033 28760 ft 432 kts 352°
2026-04-30 08:58 47.52862 0.34304 28297 ft 427 kts 352°
2026-04-30 08:59 47.55774 0.33580 27824 ft 422 kts 352°
2026-04-30 08:59 47.58657 0.32862 27370 ft 418 kts 352°
2026-04-30 08:59 47.61516 0.32154 26924 ft 414 kts 352°
2026-04-30 08:59 47.64383 0.31442 26490 ft 410 kts 352°
2026-04-30 09:00 47.67185 0.30744 26067 ft 407 kts 352°
2026-04-30 09:00 47.69962 0.30051 25652 ft 404 kts 351°
2026-04-30 09:00 47.72734 0.29357 25237 ft 402 kts 351°
2026-04-30 09:00 47.75449 0.28685 24827 ft 400 kts 353°
2026-04-30 09:01 47.78208 0.28510 24411 ft 396 kts
2026-04-30 09:01 47.80903 0.29169 23999 ft 391 kts 18°
2026-04-30 09:01 47.83441 0.30622 23739 ft 384 kts 29°
2026-04-30 09:01 47.85695 0.32705 23410 ft 380 kts 37°
2026-04-30 09:02 47.89986 0.37188 22811 ft 377 kts 37°
2026-04-30 09:02 47.92129 0.39428 22512 ft 375 kts 37°
2026-04-30 09:02 47.94290 0.41692 22213 ft 373 kts 38°
2026-04-30 09:03 47.96374 0.43873 21939 ft 369 kts 38°
2026-04-30 09:03 47.98498 0.46092 21638 ft 367 kts 38°
2026-04-30 09:03 48.00581 0.48273 21352 ft 365 kts 38°
2026-04-30 09:03 48.02645 0.50442 21059 ft 363 kts 39°
2026-04-30 09:04 48.04680 0.52589 20795 ft 361 kts 39°
2026-04-30 09:04 48.06750 0.54777 20513 ft 359 kts 39°
2026-04-30 09:04 48.08783 0.56927 20243 ft 358 kts 39°
2026-04-30 09:04 48.10816 0.59076 19946 ft 356 kts 39°
2026-04-30 09:05 48.12839 0.61210 19672 ft 355 kts 39°
2026-04-30 09:05 48.14852 0.63335 19406 ft 354 kts 40°
2026-04-30 09:05 48.16860 0.65456 19129 ft 353 kts 40°
2026-04-30 09:05 48.18866 0.67577 18858 ft 351 kts 40°
2026-04-30 09:06 48.20828 0.69660 18591 ft 349 kts 40°
2026-04-30 09:06 48.22809 0.71769 18290 ft 348 kts 40°
2026-04-30 09:06 48.24805 0.73893 18006 ft 347 kts 40°
2026-04-30 09:06 48.26771 0.75990 17767 ft 346 kts 40°
2026-04-30 09:07 48.28731 0.78082 17486 ft 344 kts 40°
2026-04-30 09:07 48.30675 0.80156 17218 ft 344 kts 40°
2026-04-30 09:07 48.32599 0.82209 16961 ft 342 kts 41°
2026-04-30 09:07 48.34362 0.84589 16703 ft 334 kts 53°
2026-04-30 09:08 48.35687 0.87356 16435 ft 327 kts 65°
2026-04-30 09:08 48.36751 0.90402 16185 ft 324 kts 67°
2026-04-30 09:08 48.37790 0.93407 15935 ft 323 kts 66°
2026-04-30 09:08 48.38812 0.96367 15689 ft 323 kts 66°
2026-04-30 09:09 48.39860 0.99393 15441 ft 321 kts 66°
2026-04-30 09:09 48.40878 1.02330 15198 ft 320 kts 66°
2026-04-30 09:09 48.41918 1.05339 14890 ft 319 kts 66°
2026-04-30 09:09 48.42924 1.08259 14554 ft 317 kts 66°
2026-04-30 09:10 48.43941 1.11206 14214 ft 316 kts 66°
2026-04-30 09:10 48.44949 1.14129 13876 ft 314 kts 66°
2026-04-30 09:10 48.45955 1.17051 13523 ft 313 kts 66°
2026-04-30 09:10 48.46951 1.19958 13186 ft 312 kts 66°
2026-04-30 09:11 48.47944 1.22859 12861 ft 311 kts 66°
2026-04-30 09:11 48.48933 1.25752 12532 ft 310 kts 66°
2026-04-30 09:11 48.49931 1.28673 12209 ft 306 kts 66°
2026-04-30 09:11 48.50889 1.31476 12032 ft 296 kts 66°
2026-04-30 09:12 48.51823 1.34206 11775 ft 291 kts 66°
2026-04-30 09:12 48.52748 1.36910 11527 ft 289 kts 65°
2026-04-30 09:12 48.53656 1.39564 11282 ft 288 kts 65°
2026-04-30 09:12 48.54585 1.42272 11046 ft 286 kts 66°
2026-04-30 09:13 48.55503 1.44947 10797 ft 286 kts 66°
2026-04-30 09:13 48.56417 1.47613 10560 ft 286 kts 66°
2026-04-30 09:13 48.57364 1.50189 10318 ft 286 kts 58°
2026-04-30 09:13 48.58669 1.52476 10100 ft 289 kts 48°
2026-04-30 09:14 48.60102 1.54661 9963 ft 289 kts 49°
2026-04-30 09:14 48.61489 1.56786 9845 ft 288 kts 49°
2026-04-30 09:14 48.62896 1.58945 9707 ft 288 kts 49°
2026-04-30 09:14 48.64296 1.61104 9576 ft 287 kts 49°
2026-04-30 09:15 48.65685 1.63247 9443 ft 286 kts 49°
2026-04-30 09:15 48.67074 1.65386 9311 ft 285 kts 49°
2026-04-30 09:15 48.68466 1.67528 9181 ft 284 kts 49°
2026-04-30 09:15 48.69853 1.69667 9075 ft 284 kts 49°
2026-04-30 09:16 48.71234 1.71800 8877 ft 283 kts 50°
2026-04-30 09:16 48.72604 1.73922 8674 ft 281 kts 49°
2026-04-30 09:16 48.73968 1.76033 8458 ft 280 kts 49°
2026-04-30 09:16 48.75340 1.78160 8237 ft 278 kts 50°
2026-04-30 09:17 48.76671 1.80227 8021 ft 277 kts 49°
2026-04-30 09:17 48.78010 1.82305 7789 ft 276 kts 50°
2026-04-30 09:17 48.79360 1.84403 7578 ft 274 kts 50°
2026-04-30 09:17 48.80674 1.86443 7366 ft 273 kts 50°
2026-04-30 09:18 48.81999 1.88503 7144 ft 272 kts 49°
2026-04-30 09:18 48.83316 1.90553 6939 ft 271 kts 50°
2026-04-30 09:18 48.84625 1.92595 6717 ft 269 kts 49°
2026-04-30 09:18 48.85952 1.94667 6494 ft 270 kts 49°
2026-04-30 09:19 48.87236 1.96674 6281 ft 267 kts 49°
2026-04-30 09:19 48.88529 1.98693 6068 ft 268 kts 50°
2026-04-30 09:19 48.89830 2.00724 5857 ft 267 kts 49°
2026-04-30 09:19 48.91123 2.02743 5649 ft 265 kts 50°
2026-04-30 09:20 48.92407 2.04749 5382 ft 265 kts 49°
2026-04-30 09:20 48.93686 2.06752 5096 ft 261 kts 49°
2026-04-30 09:20 48.94921 2.08691 4984 ft 250 kts 50°
2026-04-30 09:20 48.96108 2.10556 4882 ft 241 kts 50°
2026-04-30 09:21 48.97246 2.12340 4787 ft 227 kts 50°
2026-04-30 09:21 48.98307 2.14001 4668 ft 212 kts 51°
2026-04-30 09:21 48.99303 2.15565 4577 ft 199 kts 51°
2026-04-30 09:21 49.00157 2.17125 4492 ft 185 kts 65°
2026-04-30 09:22 49.00591 2.18906 4393 ft 178 kts 84°
2026-04-30 09:22 49.00710 2.20766 4253 ft 176 kts 88°
2026-04-30 09:22 49.00814 2.22602 4217 ft 175 kts 89°
2026-04-30 09:22 49.00918 2.24440 4003 ft 173 kts 89°
2026-04-30 09:23 49.01021 2.26250 3793 ft 171 kts 89°
2026-04-30 09:23 49.01122 2.28058 3567 ft 172 kts 89°
2026-04-30 09:23 49.01224 2.29872 3340 ft 171 kts 89°
2026-04-30 09:23 49.01325 2.31668 3109 ft 169 kts 89°
2026-04-30 09:24 49.01424 2.33431 2882 ft 166 kts 89°
2026-04-30 09:24 49.01521 2.35185 2660 ft 165 kts 89°
2026-04-30 09:24 49.01586 2.36334 2513 ft 163 kts 89°
2026-04-30 09:24 49.01682 2.38071 2293 ft 162 kts 89°
2026-04-30 09:25 49.01775 2.39761 2086 ft 163 kts 89°
2026-04-30 09:25 49.01870 2.41476 1858 ft 162 kts 89°
2026-04-30 09:25 49.01964 2.43188 1640 ft 163 kts 88°
2026-04-30 09:25 49.02055 2.44828 1417 ft 143 kts 88°
2026-04-30 09:26 49.02134 2.46260 1231 ft 131 kts 89°
2026-04-30 09:26 49.02208 2.47618 1063 ft 127 kts 88°
2026-04-30 09:26 49.02274 2.48966 866 ft 125 kts 86°
2026-04-30 09:26 49.02348 2.50303 696 ft 126 kts 86°
2026-04-30 09:27 49.02425 2.51627 533 ft 125 kts 86°
2026-04-30 09:27 49.02495 2.52944 372 ft 124 kts 87°
2026-04-30 09:27 49.02559 2.54105 354 ft 90 kts 85°
2026-04-30 09:27 49.02599 2.54840 353 ft 57 kts 85°
2026-04-30 09:28 49.02581 2.55237 359 ft 25 kts 108°
2026-04-30 09:28 49.02502 2.55511 359 ft 27 kts 116°
2026-04-30 09:28 49.02362 2.55619 357 ft 24 kts 176°
2026-04-30 09:28 49.02226 2.55635 358 ft 13 kts 175°
2026-04-30 09:29 49.02146 2.55643 358 ft 5 kts 177°
2026-04-30 09:29 49.02101 2.55648 355 ft 8 kts 175°
2026-04-30 09:29 49.02040 2.55658 359 ft 10 kts 174°
2026-04-30 09:29 49.01965 2.55669 355 ft 12 kts 176°
2026-04-30 09:30 49.01910 2.55655 359 ft 8 kts 213°
2026-04-30 09:30 49.01888 2.55578 363 ft 0 kts 261°
2026-04-30 09:30 49.01884 2.55528 358 ft 11 kts 265°
2026-04-30 09:30 49.01876 2.55401 355 ft 13 kts 264°
2026-04-30 09:31 49.01868 2.55231 357 ft 20 kts 266°
2026-04-30 09:31 49.01859 2.55042 360 ft 10 kts 265°
2026-04-30 09:31 49.01853 2.54942 355 ft 10 kts 266°
2026-04-30 09:31 49.01847 2.54823 355 ft 12 kts 264°
2026-04-30 09:32 49.01839 2.54681 355 ft 14 kts 266°
2026-04-30 09:32 49.01830 2.54519 361 ft 16 kts 265°
2026-04-30 09:32 49.01821 2.54340 355 ft 18 kts 266°
2026-04-30 09:32 49.01791 2.54292 359 ft 7 kts 152°
2026-04-30 09:33 49.01783 2.54316 364 ft 0 kts 109°
2026-04-30 09:34 49.01781 2.54324 364 ft 4 kts 105°
2026-04-30 09:34 49.01776 2.54422 357 ft 13 kts 110°
2026-04-30 09:34 49.01725 2.54548 360 ft 15 kts 128°
2026-04-30 09:35 49.01639 2.54663 358 ft 18 kts 145°
2026-04-30 09:35 49.01518 2.54738 356 ft 20 kts 169°
2026-04-30 09:35 49.01376 2.54738 359 ft 21 kts 191°
2026-04-30 09:35 49.01236 2.54647 356 ft 22 kts 222°
2026-04-30 09:36 49.01205 2.54474 354 ft 17 kts 266°
2026-04-30 09:36 49.01263 2.54325 351 ft 7 kts 338°
2026-04-30 09:36 49.01311 2.54332 353 ft 5 kts 48°
2026-04-30 09:36 49.01313 2.54359 352 ft 4 kts 93°
2026-04-30 09:37 49.01293 2.54410 360 ft 5 kts 131°
2026-04-30 09:37 49.01277 2.54434 358 ft 2 kts 135°
2026-04-30 09:37 49.01277 2.54435 358 ft 1 kts 135°
2026-04-30 09:37 49.01276 2.54436 358 ft 0 kts 135°